Weather History for Martinsville, VA

Change the Weather History Date:

Friday, January 3, 2014

  Actual Average (KGSO) Record (KGSO)
Temperature  
Mean Temperature 24 °F 39 °F  
Max Temperature 30 °F 48 °F 72 °F (2004)
Min Temperature 14 °F 30 °F 7 °F (1979)
Degree Days  
Heating Degree Days 42 26  
Month to date heating degree days 78  
Since 1 July heating degree days 1492  
Cooling Degree Days 0 0  
Month to date cooling degree days 0  
Year to date cooling degree days 0  
Moisture  
Dew Point 7 °F    
Average Humidity 53    
Maximum Humidity 88    
Minimum Humidity 27    
Precipitation  
Precipitation 0.00 in 0.10 in 1.77 in (1992)
Month to date precipitation 0.28  
Year to date precipitation 0.28  
Snow  
Snow 0.00 in 0.10 in 5.60 in (2002)
Month to date snowfall 0.3  
Since 1 July snowfall 1.2  
Snow Depth -    
Sea Level Pressure  
Sea Level Pressure 30.24 in    
Wind  
Wind Speed 14 mph (NNW)    
Max Wind Speed 25 mph    
Max Gust Speed 37 mph    
Visibility 10 miles    
Events      
T = Trace of Precipitation, MM = Missing Value Source: NWS Daily Summary

Daily Weather History Graph

Daily Weather History Graph

Search for Another Location

Airport:

Trip Planner

Search our weather history database for the weather conditions in past years. The results will help you decide how hot, cold, wet, or windy it might be!

Date:

Astronomy

Jan. 03, 2014 Rise Set
Actual Time 7:32 AM EST 5:16 PM EST
Civil Twilight 7:03 AM EST 5:45 PM EST
Nautical Twilight 6:31 AM EST 6:17 PM EST
Astronomical Twilight 6:00 AM EST 6:49 PM EST
Moon 9:02 AM EST (1/3) 8:18 PM EST (1/3)
Length of Visible Light 10h 41m
Length of Day
9h 44m
Waxing Crescent, 8% of the Moon is Illuminated
Jan 3
Waxing Crescent
Jan 7
First Quarter
Jan 15
Full
Jan 24
Last Quarter
Jan 30
New

Hourly Weather History & Observations

Time (EST) Temp. Windchill Dew Point Humidity Pressure Visibility Wind Dir Wind Speed Gust Speed Precip Events Conditions
12:15 AM 33.1 °F 20.1 °F 20.3 °F 59% 29.77 in 10.0 mi NW 25.3 mph 35.7 mph N/A   Clear
12:35 AM 32.0 °F 19.8 °F 18.9 °F 58% 29.78 in 10.0 mi NW 20.7 mph 28.8 mph N/A   Unknown
12:55 AM 30.7 °F 17.8 °F 17.8 °F 59% 29.80 in 10.0 mi NW 21.9 mph 33.4 mph N/A   Clear
1:15 AM 29.3 °F 18.2 °F 16.0 °F 58% 29.82 in 10.0 mi NNW 15.0 mph 28.8 mph N/A   Scattered Clouds
1:35 AM 28.4 °F 14.7 °F 14.4 °F 56% 29.84 in 10.0 mi NNW 21.9 mph 33.4 mph N/A   Mostly Cloudy
1:55 AM 27.5 °F 15.4 °F 13.1 °F 55% 29.86 in 10.0 mi NW 16.1 mph 32.2 mph N/A   Scattered Clouds
2:15 AM 26.2 °F 13.0 °F 12.7 °F 57% 29.88 in 10.0 mi NW 18.4 mph 24.2 mph N/A   Mostly Cloudy
2:35 AM 25.5 °F 14.3 °F 11.5 °F 55% 29.91 in 10.0 mi NW 12.7 mph 27.6 mph N/A   Mostly Cloudy
2:55 AM 24.4 °F 9.5 °F 10.4 °F 55% 29.93 in 10.0 mi NW 21.9 mph 29.9 mph N/A   Scattered Clouds
3:15 AM 23.4 °F 11.1 °F 10.4 °F 58% 29.95 in 10.0 mi NNW 13.8 mph 21.9 mph N/A   Scattered Clouds
3:35 AM 22.5 °F 5.9 °F 7.9 °F 54% 29.98 in 10.0 mi NW 25.3 mph 33.4 mph N/A   Scattered Clouds
3:50 AM 21.9 °F 9.2 °F 6.8 °F 52% 30.00 in 10.0 mi NNW 13.8 mph 26.5 mph N/A   Clear
4:15 AM 21.2 °F 6.8 °F 7.2 °F 55% 30.01 in 10.0 mi NW 17.3 mph 25.3 mph N/A   Clear
4:35 AM 20.7 °F 3.8 °F 5.7 °F 53% 30.02 in 10.0 mi NW 24.2 mph 36.8 mph N/A   Clear
4:55 AM 19.9 °F 7.9 °F 5.9 °F 55% 30.03 in 10.0 mi NW 11.5 mph 26.5 mph N/A   Clear
5:15 AM 19.8 °F 9.1 °F 5.9 °F 55% 30.05 in 10.0 mi NNW 9.2 mph 29.9 mph N/A   Clear
5:35 AM 19.9 °F 6.2 °F 4.8 °F 52% 30.07 in 10.0 mi NNW 15.0 mph 23.0 mph N/A   Clear
5:55 AM 20.1 °F 5.4 °F 4.8 °F 52% 30.09 in 10.0 mi NNW 17.3 mph 33.4 mph N/A   Clear
6:15 AM 19.9 °F 3.2 °F 4.6 °F 52% 30.11 in 10.0 mi NNW 23.0 mph 28.8 mph N/A   Clear
6:35 AM 19.9 °F 4.8 °F 4.6 °F 52% 30.13 in 10.0 mi NNW 18.4 mph 27.6 mph N/A   Clear
6:55 AM 19.4 °F 6.0 °F 4.6 °F 53% 30.14 in 10.0 mi NNW 13.8 mph 24.2 mph N/A   Clear
7:15 AM 18.9 °F 8.8 °F 5.0 °F 55% 30.17 in 10.0 mi NNW 8.1 mph - N/A   Clear
7:35 AM 18.9 °F 10.8 °F 4.8 °F 54% 30.19 in 10.0 mi North 5.8 mph 19.6 mph N/A   Clear
7:55 AM 18.9 °F 8.0 °F 4.6 °F 54% 30.21 in 10.0 mi NNW 9.2 mph - N/A   Clear
8:15 AM 19.2 °F 5.3 °F 5.2 °F 54% 30.22 in 10.0 mi NNW 15.0 mph 21.9 mph N/A   Clear
8:35 AM 19.4 °F 5.0 °F 4.6 °F 53% 30.22 in 10.0 mi NNW 16.1 mph 26.5 mph N/A   Clear
8:55 AM 20.5 °F 6.4 °F 5.2 °F 52% 30.23 in 10.0 mi NNW 16.1 mph 23.0 mph N/A   Clear
9:15 AM 21.2 °F 9.5 °F 5.2 °F 50% 30.25 in 10.0 mi NNW 11.5 mph 18.4 mph N/A   Clear
9:35 AM 21.6 °F 8.2 °F 5.4 °F 50% 30.26 in 10.0 mi North 15.0 mph - N/A   Clear
9:55 AM 22.5 °F 8.5 °F 5.0 °F 47% 30.28 in 10.0 mi North 17.3 mph 27.6 mph N/A   Clear
10:15 AM 23.2 °F 9.4 °F 5.0 °F 46% 30.30 in 10.0 mi NNW 17.3 mph 25.3 mph N/A   Clear
10:35 AM 23.7 °F 9.7 °F 4.8 °F 44% 30.29 in 10.0 mi NNW 18.4 mph 25.3 mph N/A   Clear
10:55 AM 24.4 °F 11.9 °F 5.5 °F 45% 30.30 in 10.0 mi NW 15.0 mph 21.9 mph N/A   Clear
11:15 AM 25.0 °F 11.7 °F 5.4 °F 43% 30.30 in 10.0 mi NNW 17.3 mph 26.5 mph N/A   Clear
11:35 AM 25.9 °F 16.0 °F 5.0 °F 41% 30.33 in 10.0 mi NNW 10.4 mph 18.4 mph N/A   Clear
11:55 AM 26.2 °F 15.8 °F 4.6 °F 40% 30.33 in 10.0 mi NW 11.5 mph 20.7 mph N/A   Clear
12:15 PM 27.0 °F 18.0 °F 4.5 °F 38% 30.32 in 10.0 mi NNW 9.2 mph - N/A   Clear
12:35 PM 27.3 °F 17.1 °F 5.2 °F 39% 30.31 in 10.0 mi NW 11.5 mph 19.6 mph N/A   Clear
12:55 PM 27.7 °F 17.1 °F 5.0 °F 38% 30.32 in 10.0 mi North 12.7 mph 19.6 mph N/A   Clear
1:15 PM 28.4 °F 18.5 °F 3.0 °F 34% 30.33 in 10.0 mi NW 11.5 mph 19.6 mph N/A   Clear
1:35 PM 29.3 °F 20.2 °F 3.4 °F 33% 30.33 in 10.0 mi NNW 10.4 mph 16.1 mph N/A   Clear
1:55 PM 29.1 °F 18.4 °F 0.7 °F 30% 30.33 in 10.0 mi NNW 13.8 mph 18.4 mph N/A   Clear
2:15 PM 30.2 °F 20.2 °F 2.1 °F 30% 30.33 in 10.0 mi North 12.7 mph 20.7 mph N/A   Clear
2:35 PM 30.2 °F 21.3 °F 2.3 °F 31% 30.32 in 10.0 mi North 10.4 mph - N/A   Clear
2:55 PM 30.7 °F 21.4 °F 1.2 °F 28% 30.33 in 10.0 mi North 11.5 mph - N/A   Clear
3:15 PM 30.4 °F 20.5 °F 0.7 °F 28% 30.33 in 10.0 mi NNW 12.7 mph 18.4 mph N/A   Clear
3:35 PM 30.2 °F 20.8 °F -0.4 °F 27% 30.35 in 10.0 mi NNW 11.5 mph 16.1 mph N/A   Clear
3:55 PM 30.2 °F 21.9 °F -0.2 °F 27% 30.35 in 10.0 mi North 9.2 mph - N/A   Clear
4:15 PM 30.0 °F 24.1 °F 0.3 °F 28% 30.35 in 10.0 mi NNW 5.8 mph - N/A   Clear
4:35 PM 29.3 °F 22.3 °F 0.9 °F 30% 30.36 in 10.0 mi NNW 6.9 mph - N/A   Clear
4:55 PM 28.2 °F 22.0 °F 0.9 °F 31% 30.37 in 10.0 mi North 5.8 mph - N/A   Clear
5:15 PM 27.1 °F 23.2 °F 2.1 °F 34% 30.37 in 10.0 mi North 3.5 mph - N/A   Clear
5:35 PM 26.2 °F 20.7 °F 3.2 °F 37% 30.38 in 10.0 mi NNW 4.6 mph - N/A   Clear
5:55 PM 25.2 °F - 4.1 °F 41% 30.39 in 10.0 mi Calm Calm - N/A   Clear
6:15 PM 24.8 °F 19.1 °F 4.8 °F 43% 30.39 in 10.0 mi North 4.6 mph - N/A   Clear
6:35 PM 22.8 °F - 6.1 °F 49% 30.40 in 10.0 mi Calm Calm - N/A   Clear
6:55 PM 21.4 °F 13.8 °F 7.7 °F 56% 30.41 in 10.0 mi NNW 5.8 mph - N/A   Clear
7:15 PM 20.7 °F - 9.7 °F 63% 30.41 in 10.0 mi Calm Calm - N/A   Clear
7:35 PM 19.4 °F - 8.4 °F 62% 30.41 in 10.0 mi Calm Calm - N/A   Clear
7:55 PM 18.9 °F - 9.9 °F 68% 30.42 in 10.0 mi Calm Calm - N/A   Clear
8:15 PM 18.3 °F - 9.7 °F 69% 30.42 in 10.0 mi Calm Calm - N/A   Clear
8:35 PM 17.4 °F 12.1 °F 10.6 °F 75% 30.43 in 10.0 mi NNW 3.5 mph - N/A   Clear
8:55 PM 17.2 °F - 10.9 °F 76% 30.43 in 10.0 mi Calm Calm - N/A   Clear
9:15 PM 17.2 °F - 10.8 °F 76% 30.44 in 10.0 mi Calm Calm - N/A   Clear
9:35 PM 15.8 °F - 11.7 °F 84% 30.45 in 10.0 mi Calm Calm - N/A   Clear
9:55 PM 15.8 °F - 10.9 °F 81% 30.45 in 10.0 mi Calm Calm - N/A   Clear
10:15 PM 15.3 °F - 11.7 °F 86% 30.45 in 10.0 mi Calm Calm - N/A   Clear
10:35 PM 14.9 °F - 11.3 °F 86% 30.45 in 10.0 mi Calm Calm - N/A   Clear
10:55 PM 14.9 °F - 11.3 °F 86% 30.46 in 10.0 mi Calm Calm - N/A   Clear
11:15 PM 14.4 °F - 11.5 °F 88% 30.47 in 10.0 mi Calm Calm - N/A   Clear
11:35 PM 14.9 °F - 11.5 °F 86% 30.48 in 10.0 mi Calm Calm - N/A   Clear
11:55 PM 14.9 °F - 11.1 °F 85% 30.47 in 10.0 mi Calm Calm - N/A   Clear